Location: Asheville, NC
(35.6000°N, 82.5500°W)
Time: 11:37:15
(UTC-04:00)

Vanguard 1 Rocket - Pass Details

Date: 12 February 2018
Orbit: 652 x 4225 km, 34.3° (Epoch: 23 May)

Event Time Altitude Azimuth Distance (km) Brightness Sun altitude
Rises 02:48:11 0° 257° (WSW) 8,135 - -54.6°
Reaches altitude 10° 02:53:30 10° 257° (WSW) 7,297 - -53.7°
Exits shadow 03:19:04 83° 223° (SW) 3,894 10.1 -49.0°
Maximum altitude 03:20:18 85° 173° (S) 3,830 10.1 -48.7°
Drops below altitude 10° 03:38:44 10° 88° (E) 5,365 11.8 -45.2°
Sets 03:41:57 0° 88° (E) 6,008 12.3 -44.6°
